Chico, CA

10:16 AM PDT on June 25, 2017 (GMT -0700)
Chico Municipal

Weather History for KCIC - January, 2014

Change the Weather History Date:

Thursday, January 9, 2014

  Actual Average (KOVE) Record (KOVE)
Temperature  
Mean Temperature 49 °F -  
Max Temperature 57 °F 53 °F 76 °F (1962)
Min Temperature 41 °F 35 °F 26 °F (1957)
Degree Days  
Heating Degree Days 16    
Moisture  
Dew Point 40 °F    
Average Humidity 76    
Maximum Humidity 93    
Minimum Humidity 63    
Precipitation  
Precipitation 0.00 in - - ()
Sea Level Pressure  
Sea Level Pressure 30.20 in    
Wind  
Wind Speed 2 mph (East)    
Max Wind Speed 9 mph    
Max Gust Speed -    
Visibility 10 miles    
Events      
Averages and records for this station are not official NWS values.
T = Trace of Precipitation, MM = Missing Value Source: NWS Daily Summary

Daily Weather History Graph

Daily Weather History Graph

Search for Another Location

Airport or City:

Trip Planner

Search our weather history database for the weather conditions in past years. The results will help you decide how hot, cold, wet, or windy it might be!

Date:

Astronomy

Jan. 09, 2014 Rise Set
Actual Time 7:28 AM PST 5:01 PM PST
Civil Twilight 6:58 AM PST 5:31 PM PST
Nautical Twilight 6:25 AM PST 6:04 PM PST
Astronomical Twilight 5:52 AM PST 6:37 PM PST
Moon 12:30 PM PST (1/9) 1:41 AM PST (1/9)
Length of Visible Light 10h 32m
Length of Day
9h 32m
Waxing Gibbous, 67% of the Moon is Illuminated
Jan 9
Waxing Gibbous
Jan 15
Full
Jan 23
Last Quarter
Jan 30
New
Feb 6
First Quarter

Hourly Weather History & Observations

Time (PST) Temp. Windchill Dew Point Humidity Pressure Visibility Wind Dir Wind Speed Gust Speed Precip Events Conditions
12:15 AM 48.2 °F - 39.2 °F 71% 30.17 in 10.0 mi ESE 6.9 mph - N/A   Mostly Cloudy
12:35 AM 46.4 °F - 39.2 °F 76% 30.16 in 10.0 mi Calm Calm - N/A   Overcast
12:55 AM 44.6 °F - 39.2 °F 81% 30.17 in 10.0 mi Calm Calm - N/A   Mostly Cloudy
1:15 AM 46.4 °F 43.5 °F 39.2 °F 76% 30.16 in 10.0 mi SE 5.8 mph - N/A   Partly Cloudy
1:35 AM 48.2 °F - 39.2 °F 71% 30.17 in 10.0 mi Calm Calm - N/A   Clear
1:55 AM 44.6 °F - 39.2 °F 81% 30.17 in 10.0 mi Calm Calm - N/A   Clear
2:15 AM 46.4 °F - 39.2 °F 76% 30.17 in 10.0 mi Calm Calm - N/A   Clear
2:35 AM 46.4 °F - 39.2 °F 76% 30.17 in 10.0 mi Calm Calm - N/A   Clear
2:55 AM 46.4 °F - 39.2 °F 76% 30.17 in 10.0 mi Calm Calm - N/A   Clear
3:15 AM 44.6 °F - 39.2 °F 81% 30.17 in 10.0 mi Calm Calm - N/A   Clear
3:35 AM 44.6 °F - 39.2 °F 81% 30.18 in 10.0 mi Calm Calm - N/A   Partly Cloudy
3:55 AM 44.6 °F 40.7 °F 39.2 °F 81% 30.17 in 10.0 mi North 6.9 mph - N/A   Clear
4:15 AM 44.6 °F - 39.2 °F 81% 30.18 in 10.0 mi Calm Calm - N/A   Clear
4:35 AM 42.8 °F - 39.2 °F 87% 30.18 in 10.0 mi Calm Calm - N/A   Clear
4:55 AM 41.0 °F - 37.4 °F 87% 30.17 in 10.0 mi Calm Calm - N/A   Clear
5:15 AM 41.0 °F - 37.4 °F 87% 30.17 in 10.0 mi Calm Calm - N/A   Clear
5:35 AM 41.0 °F - 39.2 °F 93% 30.17 in 10.0 mi Calm Calm - N/A   Clear
5:55 AM 41.0 °F - 37.4 °F 87% 30.17 in 10.0 mi Calm Calm - N/A   Clear
6:15 AM 41.0 °F - 37.4 °F 87% 30.17 in 10.0 mi Calm Calm - N/A   Clear
6:35 AM 41.0 °F - 37.4 °F 87% 30.19 in 10.0 mi Calm Calm - N/A   Clear
6:56 AM 41.0 °F 38.0 °F 37.4 °F 87% 30.19 in 10.0 mi NNE 4.6 mph - N/A   Mostly Cloudy
7:50 AM 41.0 °F 38.0 °F 37.4 °F 87% 30.22 in 10.0 mi NNE 4.6 mph - N/A   Mostly Cloudy
8:47 AM 44.6 °F 40.2 °F 41.0 °F 87% 30.22 in 10.0 mi ENE 8.1 mph - N/A   Mostly Cloudy
9:55 AM 51.8 °F - 44.6 °F 76% 30.26 in 10.0 mi SE 9.2 mph - N/A   Scattered Clouds
10:50 AM 53.6 °F - 44.6 °F 72% 30.25 in 10.0 mi SE 9.2 mph - N/A   Mostly Cloudy
11:47 AM 55.4 °F - 44.6 °F 67% 30.25 in 10.0 mi SE 6.9 mph - N/A   Mostly Cloudy
12:55 PM 57.2 °F - 44.6 °F 63% 30.20 in 10.0 mi South 5.8 mph - N/A   Scattered Clouds
1:48 PM 57.2 °F - 44.6 °F 63% 30.20 in 10.0 mi SSE 6.9 mph - N/A   Partly Cloudy
4:59 PM 55.4 °F - 44.6 °F 67% 30.21 in 40.0 mi Calm Calm - N/A   Mostly Cloudy
5:54 PM 55.4 °F - 44.6 °F 67% 30.21 in 10.0 mi Calm Calm - N/A   Mostly Cloudy
6:48 PM 51.8 °F - 42.8 °F 71% 30.21 in 10.0 mi Calm Calm - N/A   Mostly Cloudy
6:55 PM 51.8 °F - 42.8 °F 71% 30.21 in 10.0 mi NE 4.6 mph - N/A   Overcast
7:15 PM 50.0 °F - 41.0 °F 71% 30.22 in 10.0 mi Calm Calm - N/A   Overcast
7:35 PM 50.0 °F - 41.0 °F 71% 30.22 in 10.0 mi Calm Calm - N/A   Overcast
7:55 PM 50.0 °F - 41.0 °F 71% 30.23 in 10.0 mi Calm Calm - N/A   Overcast
8:15 PM 50.0 °F - 41.0 °F 71% 30.22 in 10.0 mi Calm Calm - N/A   Mostly Cloudy
8:35 PM 48.2 °F - 41.0 °F 76% 30.22 in 10.0 mi Calm Calm - N/A   Clear
8:55 PM 46.4 °F - 41.0 °F 81% 30.22 in 10.0 mi Calm Calm - N/A   Clear
9:15 PM 46.4 °F - 39.2 °F 76% 30.23 in 10.0 mi Calm Calm - N/A   Clear
9:35 PM 46.4 °F - 37.4 °F 71% 30.22 in 10.0 mi Calm Calm - N/A   Clear
9:55 PM 46.4 °F 43.5 °F 37.4 °F 71% 30.22 in 10.0 mi NE 5.8 mph - N/A   Clear
10:15 PM 46.4 °F - 37.4 °F 71% 30.22 in 10.0 mi Calm Calm - N/A   Clear
10:35 PM 46.4 °F 43.5 °F 35.6 °F 66% 30.23 in 10.0 mi ENE 5.8 mph - N/A   Clear
10:55 PM 46.4 °F - 35.6 °F 66% 30.23 in 10.0 mi Calm Calm - N/A   Clear
11:15 PM 44.6 °F - 37.4 °F 76% 30.23 in 10.0 mi Calm Calm - N/A   Clear
11:35 PM 44.6 °F - 35.6 °F 71% 30.24 in 10.0 mi Calm Calm - N/A   Clear
11:55 PM 41.0 °F - 35.6 °F 81% 30.24 in 10.0 mi Calm Calm - N/A   Clear